Location: Korczew
(51.3586°N, 19.4491°E)
Time: 08:08:39
(UTC+00:00)

Lacrosse 5 rocket - Pass Details

Date: 19 May 2025
Orbit: 419 x 516 km, 57.0° (Epoch: 16 June)

Event Time Altitude Azimuth Distance (km) Brightness Sun altitude
Rises 19:44:55 0° 299° (WNW) 2,498 6.2 -9.2°
Reaches altitude 10° 19:47:08 10° 293° (WNW) 1,601 4.8 -9.4°
Maximum altitude 19:50:35 47° 219° (SW) 596 1.4 -9.7°
Enters shadow 19:53:14 15° 148° (SSE) 1,279 2.5 -10.0°
